Location: Bidwell Hollow
(37.7387°N, 90.1707°W)
Time: 02:39:38
(UTC+00:00)

Vanguard 3 - Pass Details

Date: 17 May 2026
Orbit: 507 x 3204 km, 33.3° (Epoch: 6 June)

Event Time Altitude Azimuth Distance (km) Brightness Sun altitude
Rises 20:09:14 0° 255° (WSW) 6,550 12.3 56.0°
Reaches altitude 10° 20:13:13 10° 253° (WSW) 5,755 12.2 55.3°
Maximum altitude 20:32:16 76° 173° (S) 3,251 11.2 51.7°
Drops below altitude 10° 20:49:42 10° 92° (E) 5,337 11.0 48.4°
Sets 20:53:14 0° 91° (E) 6,076 11.2 47.7°
